STARLINK-32630, 62047

Orbit data source: Space-Track

STARLINK-32630, 62047 is a payload satellite owned by SpaceX/Seattle (US) in LEO that was launched on Thu, 21 Nov 2024 UTC via an FALCON 9 launch vehicle from the Air Force Eastern Test Range (AFETR). Payload-class satellites include a variety of spacecraft equipped with specific instruments for various scientific and technological missions. These include communications satellites like Starlink; space stations such as the ISS; scientific satellites like the Hubble; Earth observation satellites from companies like Planet Labs, Umbra, and HawkEye 360; GPS; miniature CubeSats for education and research; and military/defense satellites.

Loading next visibility...
Identifier
62047, 2024-216R
Orbit
LEO
Last TLE update
13 hours ago
Origin
Manufacturer
SpaceX/Seattle
Mission
Operational Commercial Communications
Bus & Motor
STARLINK V2M, Unknown motor
Mass
730 kg wet, ~700 kg dry
Launch date (UTC)
2024-11-21 (8 months ago)
Launch vehicle
FALCON 9
Launch site
Air Force Eastern Test Range (AFETR)
Object type
Payload
Rocket body
Debris
Shape & HBR
Box + 2 Pan, 29 m
Radar Cross Section
36.964 m², Large (>1 m²)

Expand to show TLE details & history

TLE from 13 hours ago
0 STARLINK-32630
1 62047U 24216R   25188.76352552  .00015067  00000-0  55582-3 0  9990
2 62047  42.9989 206.7739 0001554 270.1006  89.9667 15.27585398 36330
Epoch: 2025-07-07T18:19Z
TLE epoch observation values (Epoch: 2025-07-07T18:19:28.604Z)
Latitude
-0.00008°
Longitude
5.93644°
Altitude
482.808 km
Speed
7.626 km/s
True Right ascension
13h 47m 05s
True Declination
0° 00' 00"
Sunlit
Object was in daylight at epoch
Visualization orbit readout
Latitude
28.83732°
Longitude
146.88303°
Altitude
484.172 km
Speed
7.627 km/s
Apparent Right ascension
02h 37m 07s
Apparent Declination
-8° 43' 14"
Sunlit
Object is in daylight
Visualization observer readout
Local Sidereal Time
19:33:37
Azimuth
86.556° E
Elevation
-17.738°
Doppler factor
1
Orbital elements
Apogee altitude
486.045 km
Perigee altitude
483.912 km
Semi-major axis
6,863.115 km
Eccentricity
0.00016
Inclination
42.9989°
RAAN
206.7739°
Arg. of periapsis
270.1006°
True anomaly
Unknown
Mean anomaly
89.9667°
Eccentric anomaly
Unknown
Mean motion
3.81734 °/min
Orbital period
94.31 mins
BSTAR
0.00055582
Loading maneuver chart data...
Loading SW <> Apogee altitude chart data...
Loading historical data...
Loading historical data...
Loading historical data...
Loading historical data...
Loading historical data...
Loading historical data...
Loading historical data...

STARLINK-32630 Visibility forecast

Observer location: undefined°, undefined°

Span
Click to sort rows by Start time (UTC) header in descending order
Start Az.
Max El. time (UTC)
Max El. Az.
Max El.
End time (UTC)
End Az.
7 mins2025-07-08 08:51:03.652Z289.045° WNW2025-07-08 08:55:03.652Z65.922° ENE42.936°2025-07-08 08:58:03.652Z101.32° ESE
4 mins2025-07-08 10:32:03.652Z250.78° W2025-07-08 10:33:03.652Z225.256° WSW25.957°2025-07-08 10:36:03.652Z155.792° SSE
6 mins2025-07-09 05:06:03.652Z245.323° WSW2025-07-09 05:09:03.652Z93.553° ESE42.899°2025-07-09 05:12:03.652Z73.1° E
5 mins2025-07-09 06:46:03.652Z293.307° NW2025-07-09 06:48:03.652Z16.675° NNE37.584°2025-07-09 06:51:03.652Z73.563° E
|